DW5679 Weather Reports


Display with metric or nautical units.
time (UTC)temp
F
wind
direction
speed
MPH
gust
MPH
rain 1hr
in
rain 24hr
in
rain mn
in
humidity
%
barometer
mb
20260509053043 62 344 0.0 3.0 0.00 0.00 0.00 88 1011.4
20260509053015 62 14 0.0 3.0 0.00 0.00 0.00 88 1010.9
20260509051541 62 41 0.0 0.0 0.00 0.00 0.00 88 1011.7
20260509051508 62 71 0.0 0.0 0.00 0.00 0.00 88 1011.2
20260509050039 62 41 0.0 0.0 0.00 0.00 0.00 88 1011.7
20260509050022 62 71 0.0 0.0 0.00 0.00 0.00 88 1011.2
20260509044540 62 41 0.0 0.0 0.00 0.00 0.00 86 1011.7
20260509044503 62 71 0.0 0.0 0.00 0.00 0.00 86 1011.4
20260509043043 63 22 0.0 0.0 0.00 0.00 0.00 85 1012.6
20260509043021 63 52 0.0 0.0 0.00 0.00 0.00 84 1012.1
20260509041538 63 22 0.0 0.0 0.00 0.00 0.00 84 1012.5
20260509041520 63 52 0.0 0.0 0.00 0.00 0.00 84 1012.0
20260509040053 63 347 0.0 2.0 0.00 0.00 0.00 85 1012.8
20260509040014 63 17 0.0 2.0 0.00 0.00 0.00 84 1012.4
20260509034547 64 340 0.0 1.0 0.00 0.00 0.00 83 1012.9
20260509034515 64 10 0.0 1.0 0.00 0.00 0.00 83 1012.5
20260509033037 64 346 0.0 2.0 0.00 0.00 0.00 81 1012.6
20260509033006 64 15 0.0 2.0 0.00 0.00 0.00 80 1012.2
20260509031536 63 346 0.0 1.0 0.00 0.00 0.00 83 1012.9
20260509031513 63 33 0.0 1.0 0.00 0.00 0.00 83 1012.3
20260509030036 63 11 0.0 0.0 0.00 0.00 0.00 85 1012.2
20260509030029 63 41 0.0 0.0 0.00 0.00 0.00 85 1011.7
20260509024534 63 11 0.0 1.0 0.00 0.00 0.00 86 1012.0
20260509023033 63 21 0.0 0.0 0.00 0.00 0.00 85 1011.5
20260509023020 63 52 0.0 0.0 0.00 0.00 0.00 84 1011.0
20260509021536 64 21 0.0 0.0 0.00 0.00 0.00 82 1010.7
20260509021517 64 51 0.0 0.0 0.00 0.00 0.00 81 1010.2
20260509020039 65 22 0.0 0.0 0.00 0.00 0.00 81 1010.4
20260509020013 65 51 0.0 0.0 0.00 0.00 0.00 80 1010.0
20260509014533 66 21 0.0 0.0 0.00 0.00 0.00 78 1009.9
20260509014508 66 51 0.0 0.0 0.00 0.00 0.00 77 1009.7
20260509013034 67 21 0.0 0.0 0.00 0.00 0.00 74 1010.1
20260509013030 67 51 0.0 0.0 0.00 0.00 0.00 73 1009.9
20260509011535 69 21 0.0 0.0 0.00 0.00 0.00 70 1010.0
20260509011525 69 51 0.0 0.0 0.00 0.00 0.00 70 1009.7
20260509010037 70 21 0.0 0.0 0.00 0.00 0.00 67 1009.9
20260509010024 70 52 0.0 0.0 0.00 0.00 0.00 66 1009.5
20260509004539 73 21 0.0 0.0 0.00 0.00 0.00 62 1010.0
20260509004526 73 52 0.0 0.0 0.00 0.00 0.00 61 1009.6
20260509003029 74 21 0.0 0.0 0.00 0.00 0.00 60 1009.9
20260509003016 74 51 0.0 0.0 0.00 0.00 0.00 59 1009.5
20260509001528 76 4 0.0 0.0 0.00 0.00 0.00 57 1010.0
20260509001512 76 34 0.0 0.0 0.00 0.00 0.00 56 1009.6
20260509000027 75 4 0.0 1.0 0.00 0.00 0.00 56 1010.0
20260509000025 75 34 0.0 1.0 0.00 0.00 0.00 55 1009.7
20260508234527 74 17 0.0 1.0 0.00 0.00 0.00 57 1010.2
20260508234524 74 47 0.0 1.0 0.00 0.00 0.00 58 1009.8
20260508233026 74 23 0.0 1.0 0.00 0.00 0.00 55 1010.2
20260508233024 74 53 0.0 2.0 0.00 0.00 0.00 55 1009.9
20260508231526 74 21 0.0 1.0 0.00 0.00 0.00 55 1010.2
20260508231521 74 51 0.0 1.0 0.00 0.00 0.00 54 1009.8
20260508230026 74 11 0.0 1.0 0.00 0.00 0.00 56 1010.1
20260508230002 74 41 0.0 1.0 0.00 0.00 0.00 56 1009.7
20260508224527 75 22 0.0 1.0 0.00 0.00 0.00 54 1010.1
20260508224503 75 52 0.0 1.0 0.00 0.00 0.00 53 1009.7
20260508223038 75 13 0.0 0.0 0.00 0.00 0.00 55 1010.0
20260508223009 75 43 0.0 0.0 0.00 0.00 0.00 55 1009.7
20260508221524 75 12 0.0 0.0 0.00 0.00 0.00 54 1010.0
20260508221505 75 43 0.0 0.0 0.00 0.00 0.00 56 1009.7
20260508220025 75 33 0.0 1.0 0.00 0.00 0.00 53 1009.9
20260508220013 75 62 0.0 1.0 0.00 0.00 0.00 52 1009.6
20260508214523 76 21 0.0 1.0 0.00 0.00 0.00 52 1010.0
20260508214504 76 50 0.0 1.0 0.00 0.00 0.00 53 1009.7
20260508213122 76 48 0.0 1.0 0.00 0.00 0.00 51 1010.2
20260508213010 76 78 0.0 1.0 0.00 0.00 0.00 51 1009.9
20260508211519 76 359 0.0 1.0 0.00 0.00 0.00 52 1010.6
20260508211504 76 29 0.0 1.0 0.00 0.00 0.00 51 1010.2
20260508210017 75 117 0.0 1.0 0.00 0.00 0.00 52 1011.0
20260508210006 75 148 0.0 2.0 0.00 0.00 0.00 52 1010.5
20260508204522 75 333 0.0 4.0 0.00 0.00 0.00 49 1011.2
20260508204509 75 10 1.0 4.0 0.00 0.00 0.00 48 1010.7
20260508203013 75 220 0.0 2.0 0.00 0.00 0.00 52 1011.3
20260508201513 74 349 0.0 3.0 0.00 0.00 0.00 53 1011.6
20260508201505 74 19 0.0 3.0 0.00 0.00 0.00 53 1011.2
20260508200011 75 354 0.0 4.0 0.00 0.00 0.00 50 1011.9
20260508200008 75 25 1.0 4.0 0.00 0.00 0.00 49 1011.4
20260508194508 75 25 0.0 2.0 0.00 0.00 0.00 52 1012.1
20260508194506 75 48 0.0 2.0 0.00 0.00 0.00 51 1011.6
20260508193009 75 38 0.0 1.0 0.00 0.00 0.00 54 1011.9
20260508193006 75 7 0.0 1.0 0.00 0.00 0.00 55 1012.5
20260508191514 74 203 0.0 1.0 0.00 0.00 0.00 55 1012.2
20260508191507 74 173 0.0 1.0 0.00 0.00 0.00 56 1012.6
20260508190100 74 162 0.0 2.0 0.00 0.00 0.00 61 1012.9
20260508190012 74 256 0.0 2.0 0.00 0.00 0.00 57 1012.4
20260508184609 74 65 0.0 1.0 0.00 0.00 0.00 56 1012.9
20260508184514 74 55 0.0 1.0 0.00 0.00 0.00 58 1012.5
20260508183053 72 20 0.0 1.0 0.00 0.00 0.00 59 1013.2
20260508183010 72 50 0.0 1.0 0.00 0.00 0.00 59 1012.7
20260508181559 71 8 0.0 2.0 0.00 0.00 0.00 60 1013.5
20260508181525 71 37 0.0 2.0 0.00 0.00 0.00 60 1012.9
20260508180048 70 25 0.0 3.0 0.00 0.00 0.00 65 1013.8
20260508180012 70 55 0.0 3.0 0.00 0.00 0.00 63 1013.1
20260508174544 70 3 0.0 1.0 0.00 0.00 0.00 63 1014.1
20260508174517 70 33 0.0 1.0 0.00 0.00 0.00 62 1013.4
20260508173040 69 10 0.0 1.0 0.00 0.00 0.00 63 1014.3
20260508173012 69 39 0.0 1.0 0.00 0.00 0.00 62 1013.7
20260508171543 69 17 0.0 1.0 0.00 0.00 0.00 62 1014.4
20260508171512 69 47 0.0 1.0 0.00 0.00 0.00 62 1013.8
20260508170037 68 60 0.0 1.0 0.00 0.00 0.00 65 1014.7
20260508170015 68 98 0.0 1.0 0.00 0.00 0.00 64 1014.1
20260508164531 67 20 0.0 2.0 0.00 0.00 0.00 70 1015.0
20260508164525 67 50 0.0 2.0 0.00 0.00 0.00 69 1014.3
20260508163032 67 10 0.0 1.0 0.00 0.00 0.00 69 1015.3
20260508163014 67 40 0.0 1.0 0.00 0.00 0.00 68 1014.5
20260508161527 66 19 0.0 0.0 0.00 0.00 0.00 71 1015.6
20260508161514 66 49 0.0 0.0 0.00 0.00 0.00 71 1015.1
20260508160048 66 19 0.0 0.0 0.00 0.00 0.00 73 1015.9
20260508160027 66 49 0.0 0.0 0.00 0.00 0.00 72 1015.2
20260508154519 65 19 0.0 0.0 0.00 0.00 0.00 74 1016.2
20260508154516 65 49 0.0 0.0 0.00 0.00 0.00 73 1015.6
20260508153017 64 19 0.0 0.0 0.00 0.00 0.00 75 1016.0
20260508151516 63 62 0.0 1.0 0.00 0.00 0.00 79 1015.7
20260508151512 63 32 0.0 1.0 0.00 0.00 0.00 80 1016.3
20260508150018 62 60 0.0 1.0 0.00 0.00 0.00 80 1015.9
20260508150014 62 30 0.0 1.0 0.00 0.00 0.00 81 1016.6
20260508144520 60 52 0.0 1.0 0.00 0.00 0.00 82 1016.1
20260508144505 60 22 0.0 1.0 0.00 0.00 0.00 83 1016.7
20260508143110 59 55 0.0 1.0 0.00 0.00 0.00 82 1016.6
20260508143013 59 85 0.0 1.0 0.00 0.00 0.00 82 1015.8
20260508141606 58 13 0.0 1.0 0.00 0.00 0.00 84 1016.7
20260508141528 58 43 0.0 1.0 0.00 0.00 0.00 84 1016.0
20260508140055 57 7 0.0 1.0 0.00 0.00 0.00 84 1017.0
20260508140006 57 38 0.0 1.0 0.00 0.00 0.00 84 1016.3
20260508134552 56 7 0.0 1.0 0.00 0.00 0.00 90 1016.9
20260508134507 56 36 0.0 1.0 0.00 0.00 0.00 91 1016.2
20260508133056 55 13 0.0 1.0 0.00 0.00 0.00 97 1016.8
20260508133005 55 43 0.0 1.0 0.00 0.00 0.00 96 1016.0
20260508131548 53 13 0.0 1.0 0.00 0.00 0.00 98 1016.5
20260508131522 53 43 0.0 1.0 0.00 0.00 0.00 97 1015.9
20260508130054 52 13 0.0 0.0 0.00 0.00 0.00 98 1016.6
20260508130019 52 43 0.0 0.0 0.00 0.00 0.00 97 1015.9
20260508124546 51 13 0.0 0.0 0.00 0.00 0.00 97 1016.8
20260508124512 51 43 0.0 0.0 0.00 0.00 0.00 97 1016.2
20260508123045 50 13 0.0 1.0 0.00 0.00 0.00 97 1016.7
20260508123012 50 43 0.0 1.0 0.00 0.00 0.00 96 1015.9
20260508121600 50 13 0.0 0.0 0.00 0.00 0.00 97 1016.8
20260508121508 50 44 0.0 0.0 0.00 0.00 0.00 96 1016.2
20260508120044 50 12 0.0 2.0 0.00 0.00 0.00 97 1017.1
20260508120003 50 42 0.0 2.0 0.00 0.00 0.00 96 1016.5
20260508114543 49 10 0.0 0.0 0.00 0.00 0.00 97 1016.9
20260508114524 49 40 0.0 0.0 0.00 0.00 0.00 96 1016.3
20260508113042 49 25 0.0 0.0 0.00 0.00 0.00 96 1016.7
20260508113020 49 54 0.0 0.0 0.00 0.00 0.00 96 1015.9
20260508111541 49 25 0.0 1.0 0.00 0.00 0.00 96 1016.7
20260508111515 49 54 0.0 1.0 0.00 0.00 0.00 96 1015.9
20260508110049 49 6 0.0 0.0 0.00 0.00 0.00 96 1016.8
20260508110023 49 31 0.0 0.0 0.00 0.00 0.00 96 1015.9
20260508104539 49 1 0.0 1.0 0.00 0.00 0.00 96 1016.5
20260508104524 49 31 0.0 1.0 0.00 0.00 0.00 96 1015.6
20260508103039 50 15 0.0 0.0 0.00 0.00 0.00 96 1016.5
20260508103032 50 46 0.0 0.0 0.00 0.00 0.00 96 1015.6
20260508101538 49 20 0.0 0.0 0.00 0.00 0.00 96 1016.2
20260508101534 49 50 0.0 0.0 0.00 0.00 0.00 95 1015.6
20260508100037 50 20 0.0 0.0 0.00 0.00 0.00 96 1016.1
20260508100022 50 50 0.0 0.0 0.00 0.00 0.00 96 1015.4
20260508094537 50 28 0.0 0.0 0.00 0.00 0.00 96 1016.3
20260508094518 50 57 0.0 0.0 0.00 0.00 0.00 95 1015.6
20260508093034 50 28 0.0 0.0 0.00 0.00 0.00 95 1016.5
20260508093026 50 58 0.0 0.0 0.00 0.00 0.00 95 1015.8
20260508091531 51 28 0.0 0.0 0.00 0.00 0.00 96 1016.6
20260508091527 51 58 0.0 0.0 0.00 0.00 0.00 95 1015.9
20260508090032 51 58 0.0 0.0 0.00 0.00 0.00 96 1015.9
20260508090014 51 28 0.0 0.0 0.00 0.00 0.00 96 1016.6
20260508084535 51 32 0.0 0.0 0.00 0.00 0.00 96 1016.6
20260508084526 51 62 0.0 0.0 0.00 0.00 0.00 96 1015.7
20260508083113 51 32 0.0 0.0 0.00 0.00 0.00 96 1016.5
20260508083022 51 62 0.0 0.0 0.00 0.00 0.00 95 1015.7
20260508081533 51 32 0.0 0.0 0.00 0.00 0.00 96 1016.6
20260508081522 51 62 0.0 0.0 0.00 0.00 0.00 95 1015.7
20260508080041 51 32 0.0 0.0 0.00 0.00 0.00 95 1016.5
20260508080015 51 62 0.0 0.0 0.00 0.00 0.00 95 1015.7
20260508074534 52 32 0.0 0.0 0.00 0.00 0.00 94 1016.6
20260508074512 52 62 0.0 0.0 0.00 0.00 0.00 94 1015.6
20260508073032 53 28 0.0 0.0 0.00 0.00 0.00 95 1016.5
20260508073008 53 58 0.0 0.0 0.00 0.00 0.00 95 1015.6
20260508071533 53 28 0.0 0.0 0.00 0.00 0.00 95 1016.6
20260508071508 53 58 0.0 0.0 0.00 0.00 0.00 95 1015.7
20260508070026 53 28 0.0 0.0 0.00 0.00 0.00 95 1016.4
20260508064541 53 29 0.0 0.0 0.00 0.00 0.00 96 1016.5
20260508064533 53 59 0.0 0.0 0.00 0.00 0.00 95 1015.8
20260508063023 53 65 0.0 0.0 0.00 0.00 0.00 94 1015.9
20260508061524 53 35 0.0 0.0 0.00 0.00 0.00 94 1016.9
20260508061519 53 65 0.0 0.0 0.00 0.00 0.00 93 1016.0
20260508060019 53 35 0.0 0.0 0.00 0.00 0.00 93 1016.8
20260508060016 53 65 0.0 0.0 0.00 0.00 0.00 93 1016.0
20260508054517 54 36 0.0 0.0 0.00 0.00 0.00 93 1017.0
20260508054509 54 65 0.0 0.0 0.00 0.00 0.00 92 1016.2